Weather History for Erie, CO

Change the Weather History Date:

Tuesday, March 18, 2014

  Actual Average (KBJC) Record (KBJC)
Temperature  
Mean Temperature 36 °F -  
Max Temperature 43 °F 51 °F 75 °F (2007)
Min Temperature 29 °F 31 °F 13 °F (1988)
Degree Days  
Heating Degree Days 28    
Moisture  
Dew Point 14 °F    
Average Humidity 43    
Maximum Humidity 82    
Minimum Humidity 25    
Precipitation  
Precipitation 0.00 in - - ()
Sea Level Pressure  
Sea Level Pressure 29.80 in    
Wind  
Wind Speed 16 mph (North)    
Max Wind Speed 32 mph    
Max Gust Speed 43 mph    
Visibility 10 miles    
Events Snow    
Averages and records for this station are not official NWS values.
T = Trace of Precipitation, MM = Missing Value Source: NWS Daily Summary

Daily Weather History Graph

Daily Weather History Graph

Search for Another Location

Airport:

Trip Planner

Search our weather history database for the weather conditions in past years. The results will help you decide how hot, cold, wet, or windy it might be!

Date:

Astronomy

Mar. 18, 2014 Rise Set
Actual Time 7:06 AM MDT 7:10 PM MDT
Civil Twilight 6:39 AM MDT 7:37 PM MDT
Nautical Twilight 6:08 AM MDT 8:08 PM MDT
Astronomical Twilight 5:36 AM MDT 8:40 PM MDT
Moon 9:30 PM MDT 7:57 AM MDT
Length of Visible Light 12h 57m
Length of Day
12h 03m
Waning Gibbous, 96% of the Moon is Illuminated
Mar 18
Waning Gibbous
Mar 23
Last Quarter
Mar 30
New
Apr 7
First Quarter
Apr 15
Full

Hourly Weather History & Observations

Time (MDT) Temp. Windchill Dew Point Humidity Pressure Visibility Wind Dir Wind Speed Gust Speed Precip Events Conditions
12:16 AM 38.5 °F 27.8 °F 7.3 °F 28% 29.50 in 10.0 mi West 23.0 mph 28.8 mph N/A   Clear
12:36 AM 38.8 °F 28.3 °F 6.1 °F 26% 29.49 in 10.0 mi WSW 23.0 mph 34.5 mph N/A   Clear
12:56 AM 38.5 °F 29.9 °F 5.0 °F 25% 29.50 in 10.0 mi WSW 15.0 mph 28.8 mph N/A   Clear
1:16 AM 37.4 °F 27.5 °F 5.4 °F 26% 29.48 in 10.0 mi WSW 18.4 mph 28.8 mph N/A   Clear
1:36 AM 36.7 °F 27.2 °F 3.9 °F 25% 29.49 in 10.0 mi NW 16.1 mph 21.9 mph N/A   Clear
1:56 AM 36.9 °F 28.2 °F 4.8 °F 26% 29.46 in 10.0 mi WNW 13.8 mph 23.0 mph N/A   Clear
2:16 AM 35.2 °F 30.3 °F 4.6 °F 28% 29.47 in 10.0 mi NNW 5.8 mph - N/A   Clear
2:36 AM 35.8 °F 30.9 °F 5.2 °F 28% 29.46 in 10.0 mi WSW 5.8 mph - N/A   Clear
2:56 AM 36.0 °F 31.1 °F 6.1 °F 29% 29.47 in 10.0 mi NNE 5.8 mph - N/A   Clear
3:16 AM 32.2 °F - 7.0 °F 35% 29.46 in 10.0 mi Calm Calm - N/A   Clear
3:36 AM 34.0 °F 28.0 °F 7.3 °F 33% 29.46 in 10.0 mi NNE 6.9 mph - N/A   Clear
3:56 AM 32.0 °F 24.8 °F 7.2 °F 35% 29.47 in 10.0 mi NNW 8.1 mph - N/A   Clear
4:16 AM 34.5 °F 27.9 °F 7.2 °F 32% 29.48 in 10.0 mi NNW 8.1 mph - N/A   Clear
4:36 AM 36.0 °F 28.5 °F 6.8 °F 30% 29.48 in 10.0 mi North 10.4 mph 16.1 mph N/A   Clear
4:56 AM 36.1 °F 27.7 °F 7.3 °F 30% 29.49 in 10.0 mi West 12.7 mph 20.7 mph N/A   Clear
5:16 AM 36.9 °F 29.1 °F 7.5 °F 30% 29.50 in 10.0 mi West 11.5 mph 21.9 mph N/A   Clear
5:36 AM 36.9 °F 27.5 °F 6.8 °F 29% 29.51 in 10.0 mi WNW 16.1 mph 20.7 mph N/A   Clear
5:56 AM 36.7 °F 29.4 °F 7.3 °F 30% 29.52 in 10.0 mi WNW 10.4 mph - N/A   Clear
6:16 AM 37.2 °F 31.9 °F 6.8 °F 28% 29.55 in 10.0 mi NW 6.9 mph - N/A   Scattered Clouds
6:36 AM 32.7 °F 26.4 °F 11.5 °F 41% 29.57 in 10.0 mi NNE 6.9 mph - N/A   Mostly Cloudy
6:56 AM 32.7 °F 25.7 °F 12.9 °F 44% 29.60 in 10.0 mi NE 8.1 mph - N/A   Overcast
7:16 AM 35.2 °F 25.0 °F 16.9 °F 47% 29.62 in 10.0 mi North 17.3 mph 23.0 mph N/A   Overcast
7:36 AM 37.2 °F 26.1 °F 12.7 °F 37% 29.64 in 10.0 mi North 23.0 mph 29.9 mph N/A   Overcast
7:56 AM 34.9 °F 21.5 °F 18.9 °F 52% 29.70 in 10.0 mi North 29.9 mph 40.3 mph N/A   Overcast
8:16 AM 34.0 °F 21.5 °F 19.9 °F 56% 29.71 in 4.0 mi NNW 24.2 mph 38.0 mph N/A Snow Light Snow
8:36 AM 34.7 °F 22.0 °F 18.9 °F 52% 29.74 in 10.0 mi North 26.5 mph 33.4 mph N/A   Overcast
8:56 AM 32.5 °F 19.4 °F 23.4 °F 69% 29.76 in 2.5 mi North 25.3 mph 35.7 mph N/A Snow Light Snow
9:16 AM 31.8 °F 21.4 °F 26.8 °F 82% 29.78 in 2.0 mi North 15.0 mph 26.5 mph N/A Snow Light Snow
9:36 AM 33.3 °F 22.1 °F 23.9 °F 69% 29.79 in 10.0 mi North 18.4 mph 24.2 mph N/A   Overcast
9:56 AM 34.9 °F 23.9 °F 23.4 °F 63% 29.81 in 10.0 mi North 19.6 mph 31.1 mph N/A   Overcast
10:02 AM 35.8 °F 23.9 °F 23.4 °F 61% 29.81 in 10.0 mi NNW 24.2 mph 36.8 mph N/A   Overcast
10:56 AM 35.6 °F 24.2 °F 19.4 °F 52% 29.84 in 10.0 mi NNW 21.9 mph 25.3 mph N/A   Unknown
11:16 AM 34.3 °F 23.2 °F 20.8 °F 58% 29.85 in 3.0 mi North 19.6 mph 32.2 mph N/A Snow Light Snow
11:36 AM 35.4 °F 22.3 °F 20.3 °F 54% 29.86 in 10.0 mi North 29.9 mph 36.8 mph N/A   Overcast
11:56 AM 34.3 °F 22.0 °F 21.4 °F 59% 29.88 in 7.0 mi North 24.2 mph 38.0 mph N/A   Overcast
12:16 PM 35.2 °F 22.3 °F 22.3 °F 59% 29.89 in 10.0 mi NNE 28.8 mph 34.5 mph N/A   Overcast
12:36 PM 36.0 °F 23.7 °F 21.6 °F 56% 29.90 in 10.0 mi NNE 26.5 mph 38.0 mph N/A   Overcast
12:56 PM 36.3 °F 24.4 °F 19.2 °F 50% 29.91 in 10.0 mi North 25.3 mph 34.5 mph N/A   Overcast
1:16 PM 38.3 °F 25.8 °F 16.9 °F 42% 29.91 in 10.0 mi NNE 32.2 mph 42.6 mph N/A   Overcast
1:36 PM 39.7 °F 28.3 °F 14.2 °F 35% 29.91 in 10.0 mi North 28.8 mph 41.4 mph N/A   Overcast
1:56 PM 40.5 °F 30.7 °F 14.9 °F 35% 29.90 in 10.0 mi NNE 21.9 mph 36.8 mph N/A   Mostly Cloudy
2:16 PM 40.8 °F 30.9 °F 12.6 °F 32% 29.90 in 10.0 mi NNE 23.0 mph 33.4 mph N/A   Scattered Clouds
2:36 PM 42.1 °F 33.1 °F 12.6 °F 30% 29.90 in 10.0 mi North 20.7 mph 33.4 mph N/A   Clear
2:56 PM 42.3 °F 32.8 °F 11.8 °F 29% 29.90 in 10.0 mi NNE 23.0 mph 29.9 mph N/A   Clear
3:16 PM 42.4 °F 32.6 °F 11.5 °F 28% 29.89 in 10.0 mi North 25.3 mph 28.8 mph N/A   Clear
3:36 PM 43.5 °F 35.2 °F 12.2 °F 28% 29.90 in 10.0 mi NNE 19.6 mph 29.9 mph N/A   Clear
3:56 PM 43.5 °F 34.5 °F 11.7 °F 27% 29.91 in 10.0 mi NNE 23.0 mph 28.8 mph N/A   Clear
4:16 PM 39.2 °F 29.6 °F 34.2 °F 82% 29.92 in 10.0 mi NNE 19.6 mph 26.5 mph N/A   Mostly Cloudy
4:36 PM 40.3 °F 31.0 °F 17.8 °F 40% 29.93 in 10.0 mi NNE 19.6 mph 26.5 mph N/A   Overcast
4:56 PM - - - N/A% 29.94 in 10.0 mi NNE 17.3 mph 25.3 mph N/A   Overcast
5:16 PM 39.6 °F 31.7 °F 18.7 °F 43% 29.96 in 10.0 mi NE 13.8 mph 19.6 mph N/A   Overcast
5:36 PM 39.6 °F 31.7 °F 15.4 °F 38% 29.96 in 10.0 mi NNE 13.8 mph 23.0 mph N/A   Overcast
5:56 PM 39.2 °F 30.2 °F 12.9 °F 34% 29.97 in 10.0 mi NNE 17.3 mph 25.3 mph N/A   Overcast
6:16 PM 38.8 °F 29.7 °F 10.8 °F 32% 29.98 in 10.0 mi NNE 17.3 mph 23.0 mph N/A   Overcast
6:36 PM 38.3 °F 29.3 °F 11.1 °F 33% 30.00 in 10.0 mi NNE 16.1 mph 20.7 mph N/A   Overcast
6:56 PM 37.4 °F 29.8 °F 10.4 °F 33% 30.02 in 10.0 mi NNE 11.5 mph - N/A   Overcast
7:16 PM 36.5 °F 29.2 °F 11.3 °F 35% 30.03 in 10.0 mi NNE 10.4 mph 19.6 mph N/A   Overcast
7:36 PM 36.0 °F 28.5 °F 11.1 °F 36% 30.04 in 10.0 mi NNE 10.4 mph 17.3 mph N/A   Overcast
7:56 PM - - - N/A% 30.05 in 10.0 mi NNE 10.4 mph 19.6 mph N/A   Overcast
8:16 PM - - - N/A% 30.06 in 10.0 mi NE 6.9 mph - N/A   Overcast
8:36 PM 34.9 °F 29.0 °F 12.6 °F 40% 30.06 in 10.0 mi ENE 6.9 mph - N/A   Overcast
8:56 PM 34.2 °F 26.8 °F 15.8 °F 47% 30.07 in 10.0 mi East 9.2 mph - N/A   Overcast
9:16 PM 32.7 °F 28.3 °F 17.6 °F 54% 30.08 in 10.0 mi ESE 4.6 mph - N/A   Overcast
9:36 PM 32.0 °F 27.5 °F 18.0 °F 56% 30.09 in 10.0 mi SSE 4.6 mph - N/A   Overcast
9:56 PM 31.1 °F 26.4 °F 18.1 °F 59% 30.09 in 10.0 mi South 4.6 mph - N/A   Mostly Cloudy
10:16 PM 31.1 °F 25.4 °F 18.1 °F 59% 30.09 in 10.0 mi South 5.8 mph - N/A   Mostly Cloudy
10:36 PM 30.7 °F 27.3 °F 18.3 °F 60% 30.09 in 10.0 mi South 3.5 mph - N/A   Mostly Cloudy
10:56 PM 30.9 °F 26.2 °F 18.5 °F 60% 30.09 in 10.0 mi South 4.6 mph - N/A   Overcast
11:16 PM 30.9 °F - 18.5 °F 60% 30.09 in 10.0 mi Calm Calm - N/A   Overcast
11:36 PM 30.0 °F 25.2 °F 18.7 °F 63% 30.09 in 10.0 mi SE 4.6 mph - N/A   Scattered Clouds
11:56 PM 29.1 °F 21.3 °F 19.0 °F 66% 30.09 in 10.0 mi SE 8.1 mph - N/A   Clear